Location: Cheyres
(46.8153°N, 6.7877°E)
Time: 09:39:08
(UTC+00:00)

QB50P2 - Pass Details

Date: 29 June 2022
Orbit: 590 x 605 km, 97.9° (Epoch: 14 August)

Event Time Altitude Azimuth Distance (km) Brightness Sun altitude
Rises 01:19:31 0° 10° (N) 2,858 ? -16.2°
Reaches altitude 10° 01:21:42 10° 7° (N) 1,953 ? -16.0°
Maximum altitude 01:25:53 62° 287° (WNW) 684 ? -15.7°
Enters shadow 01:27:59 28° 216° (SW) 1,146 ? -15.5°
